STARLINK-2334, 47792

Orbit data source: Space-Track

STARLINK-2334, 47792 is a payload satellite owned by SpaceX/Seattle (US) in LEO that was launched on Thu, 11 Mar 2021 UTC via an FALCON 9 launch vehicle from the Air Force Eastern Test Range (AFETR). Payload-class satellites include a variety of spacecraft equipped with specific instruments for various scientific and technological missions. These include communications satellites like Starlink; space stations such as the ISS; scientific satellites like the Hubble; Earth observation satellites from companies like Planet Labs, Umbra, and HawkEye 360; GPS; miniature CubeSats for education and research; and military/defense satellites.

Loading next visibility...
Identifier
47792, 2021-018F
Orbit
LEO
Country
Flag of USUS
Related business
Manufacturer
SpaceX/Seattle
Mission
Operational Commercial Communications
Bus & Motor
STARLINK, Unknown motor
Mass
260 kg wet, ~248 kg dry
Launch date (UTC)
2021-03-11 (5 years ago)
Launch vehicle
FALCON 9
Launch site
Air Force Eastern Test Range (AFETR)
Object type
Payload
Rocket body
Debris
Shape & HBR
Box + 1 Pan, 10.1 m
Radar Cross Section
13.562 m², Large (>1 m²)

Expand to show TLE details & history
Last TLE update: 9 hours ago

TLE from 9 hours ago
0 STARLINK-2334
1 47792U 21018F   26120.16667823  .00858523  00000-0  30974-1 0  9996
2 47792  53.1336 359.7411 0001525  89.7393 230.2207 15.25682386  5821
Epoch: 2026-04-30T04:00Z
TLE epoch observation values (Epoch: 2026-04-30T04:00:00.999Z)
Latitude
-31.19248°
Longitude
54.77845°
Altitude
499.011 km
Speed
7.615 km/s
True Right ascension
22h 11m 35s
True Declination
-31° 02' 05"
Sunlit
Object was in daylight at epoch
Visualization orbit readout
Latitude
Unknown
Longitude
Unknown
Altitude
Unknown
Speed
Unknown
Apparent Right ascension
Unknown
Apparent Declination
Unknown
Sunlit
N/A
Visualization observer readout
Local Sidereal Time
20:11:59
Azimuth
Unknown
Elevation
Unknown
Doppler factor
Unknown
Orbital elements
Apogee altitude
490.045 km
Perigee altitude
487.95 km
Semi-major axis
6,867.134 km
Eccentricity
0.00015
Inclination
53.1336°
RAAN
359.7411°
Arg. of periapsis
89.7393°
True anomaly
230.20727°
Mean anomaly
230.2207°
Eccentric anomaly
230.21399°
Mean motion
3.81399 °/min
Orbital period
94.39 mins
BSTAR
0.030974
Loading maneuver chart data...
Computing Atmospheric mass density...
Loading historical data...
Loading historical data...
Loading historical data...
Loading historical data...
Loading historical data...
Loading historical data...
Loading historical data...

Documentation

Showing up to 5 results
|